This demonstration page uses our WeatherBlox Daily Observations layout. Learn more.

38.89511, -77.03637

Hourly Observations for February 11, 2015

Temp ( °F °C ) Dew Point ( °F °C ) Humidity (%) Winds ( mph kmh ) Pressure ( in mb ) Visibility ( mi km ) Precip ( " mm )
12:52 am 00:52 Clear 32 0 21 -6 64 64 N 13 20 30.06 1018 10 16.09344 0 0
1:52 am 01:52 Clear 32 0 21 -6 64 64 N 13 20 30.06 1018 10 16.09344 0 0
2:52 am 02:52 Clear 30 -1 21 -6 69 69 N 13 20 30.09 1019 10 16.09344 0 0
3:52 am 03:52 Clear 30 -1 21 -6 69 69 NNW 12 19 30.06 1018 10 16.09344 0 0
4:52 am 04:52 Clear 30 -1 19 -7 64 64 N 14 22 30.09 1019 10 16.09344 0 0
5:52 am 05:52 Mostly Clear 30 -1 19 -7 64 64 NNW 10 17 30.09 1019 10 16.09344 0 0
6:52 am 06:52 Mostly Clear 30 -1 19 -7 64 64 N 9 15 30.09 1019 10 16.09344 0 0
7:52 am 07:52 Mostly Sunny 30 -1 19 -7 64 64 NNW 14 22 30.12 1020 10 16.09344 0 0
8:52 am 08:52 Mostly Sunny 34 1 19 -7 56 56 N 9 15 30.12 1020 10 16.09344 0 0
9:52 am 09:52 Mostly Sunny 36 2 19 -7 52 52 N 8 13 30.09 1019 10 16.09344 0 0
10:52 am 10:52 Sunny 37 3 18 -8 45 45 NE 8 13 30.09 1019 10 16.09344 0 0
11:52 am 11:52 Mostly Sunny 39 4 18 -8 42 42 NE 5 7 30.06 1018 10 16.09344 0 0
12:52 pm 12:52 Mostly Sunny 43 6 18 -8 36 36 E 3 6 30.03 1017 10 16.09344 0 0
1:52 pm 13:52 Partly Cloudy 45 7 19 -7 37 37 E 5 7 30 1016 10 16.09344 0 0
2:52 pm 14:52 Partly Cloudy 46 8 18 -8 32 32 Calm 29.97 1015 10 16.09344 0 0
3:52 pm 15:52 Mostly Cloudy 45 7 18 -8 34 34 SSE 3 6 29.97 1015 10 16.09344 0 0
4:52 pm 16:52 Partly Cloudy 45 7 19 -7 37 37 S 6 9 29.97 1015 10 16.09344 0 0
5:32 pm 17:32 Mostly Cloudy 43 6 18 -8 36 36 S 6 9 29.97 1015 10 16.09344 0 0
5:52 pm 17:52 Mostly Cloudy 43 6 18 -8 36 36 S 7 11 29.97 1015 10 16.09344 0 0
6:52 pm 18:52 Mostly Clear 37 3 19 -7 48 48 SSE 5 7 29.97 1015 10 16.09344 0 0
7:52 pm 19:52 Cloudy 37 3 19 -7 48 48 S 7 11 29.97 1015 10 16.09344 0 0
8:11 pm 20:11 Cloudy 37 3 21 -6 52 52 S 6 9 29.97 1015 10 16.09344 0 0
8:52 pm 20:52 Cloudy 37 3 21 -6 52 52 Calm 29.97 1015 10 16.09344 0 0
9:52 pm 21:52 Cloudy 37 3 25 -4 60 60 S 5 7 29.94 1014 10 16.09344 0 0
10:52 pm 22:52 Mostly Cloudy 36 2 23 -5 60 60 S 7 11 29.94 1014 10 16.09344 0 0
11:52 pm 23:52 Mostly Cloudy 36 2 25 -4 65 65 S 8 13 29.94 1014 10 16.09344 0 0

Powered by AerisWeather